�N����,����,�~����,�C��,���x,�C��,����,���ϕ���,�ő�u�ԕ���,�ő厞����,���˗�,�I�_���x,�n�����x,�ő啗���N��,DTYPE
"20/01/18","00:10",0.0,5.8,90.5,1009.3,316.5,2.2,3.4,322.4,0.00,4.4,8.0,"00:04:32",1
"20/01/18","00:20",0.0,5.8,90.5,1008.8,327.8,0.7,2.0,318.8,0.00,4.4,7.9,"00:10:32",1
"20/01/18","00:30",0.0,5.8,90.6,1008.8,326.4,0.6,1.3,350.5,0.00,4.4,7.9,"00:20:32",1
"20/01/18","00:40",0.0,5.8,90.6,1008.6,282.0,1.1,1.2,280.5,0.00,4.4,8.2,"00:31:28",1
"20/01/18","00:50",0.0,5.7,90.7,1008.8,308.2,1.3,2.0,315.3,0.00,4.3,8.0,"00:49:52",1
"20/01/18","01:00",0.0,5.7,90.7,1009.0,315.8,2.0,2.4,318.3,0.00,4.3,8.1,"00:50:56",1
"20/01/18","01:10",0.0,5.6,90.8,1008.6,298.8,1.5,1.8,313.4,0.00,4.3,8.2,"01:04:24",1
"20/01/18","01:20",0.0,5.6,90.8,1008.3,297.2,1.2,1.6,309.8,0.00,4.3,7.9,"01:11:36",1
"20/01/18","01:30",0.0,5.6,90.9,1008.6,278.0,1.2,1.8,287.7,0.00,4.3,7.9,"01:28:32",1
"20/01/18","01:40",0.0,5.8,91.0,1008.3,277.5,1.7,2.5,264.2,0.00,4.5,7.6,"01:36:00",1
"20/01/18","01:50",0.0,5.9,91.0,1008.6,291.6,1.8,2.4,306.1,0.00,4.6,8.0,"01:44:24",1
"20/01/18","02:00",0.0,5.9,90.9,1008.3,300.1,1.6,2.4,318.3,0.00,4.6,7.9,"01:50:02",1
"20/01/18","02:10",0.0,5.8,90.9,1008.1,294.9,1.8,2.4,321.3,0.00,4.5,7.9,"02:00:08",1
"20/01/18","02:20",0.0,6.0,90.9,1007.8,285.0,1.6,2.2,266.6,0.00,4.7,7.9,"02:10:32",1
"20/01/18","02:30",0.0,6.1,90.7,1007.8,289.1,2.0,3.1,322.8,0.00,4.7,7.9,"02:20:16",1
"20/01/18","02:40",0.0,6.2,90.3,1008.3,316.7,2.1,3.5,281.3,0.00,4.8,7.7,"02:30:24",1
"20/01/18","02:50",0.0,6.2,89.6,1008.1,312.0,2.6,4.1,331.8,0.00,4.7,7.8,"02:44:08",1
"20/01/18","03:00",0.0,6.4,88.3,1008.3,301.9,2.8,4.7,326.0,0.00,4.6,7.9,"02:56:52",1
"20/01/18","03:10",0.0,6.5,86.1,1008.3,321.8,2.6,4.8,333.1,0.00,4.4,7.7,"03:05:20",1
"20/01/18","03:20",0.0,6.6,83.5,1008.6,317.5,2.2,3.7,321.1,0.00,4.0,7.9,"03:15:44",1
"20/01/18","03:30",0.0,6.6,80.8,1008.3,297.8,1.3,4.2,314.2,0.00,3.6,7.8,"03:26:24",1
"20/01/18","03:40",0.0,6.7,78.4,1008.3,272.9,1.0,1.6,256.4,0.00,3.3,7.9,"03:35:12",1
"20/01/18","03:50",0.0,6.6,76.9,1008.1,263.5,1.2,1.9,254.4,0.00,2.9,7.6,"03:46:32",1
"20/01/18","04:00",0.0,6.5,75.5,1008.1,299.0,1.3,2.4,317.3,0.00,2.5,7.9,"03:55:52",1
"20/01/18","04:10",0.0,6.5,74.1,1008.1,304.5,1.7,2.7,317.6,0.00,2.3,7.8,"04:00:40",1
"20/01/18","04:20",0.0,6.3,73.8,1007.8,307.5,1.7,2.4,312.2,0.00,2.0,7.7,"04:16:24",1
"20/01/18","04:30",0.0,6.1,74.0,1007.6,289.9,1.5,2.6,319.7,0.00,1.9,7.8,"04:20:32",1
"20/01/18","04:40",0.0,6.0,73.0,1007.4,304.5,1.6,2.8,307.2,0.00,1.6,7.7,"04:33:28",1
"20/01/18","04:50",0.0,6.2,70.0,1007.6,329.7,2.0,4.4,301.8,0.00,1.2,7.7,"04:47:36",1
"20/01/18","05:00",0.0,7.0,65.0,1007.6,342.6,1.8,5.0,336.0,0.00,0.9,7.9,"04:53:44",1
"20/01/18","05:10",0.0,7.2,61.2,1007.6,342.1,1.8,4.3,332.0,0.00,0.3,7.7,"05:04:16",1
"20/01/18","05:20",0.0,7.2,58.3,1007.4,352.5,1.2,5.7,340.5,0.00,-0.4,7.6,"05:19:52",1
"20/01/18","05:30",0.0,7.2,56.4,1007.1,322.8,1.3,4.0,300.5,0.00,-0.8,7.6,"05:20:08",1
"20/01/18","05:40",0.0,7.1,55.9,1007.1,323.7,1.7,4.0,322.5,0.00,-1.1,7.5,"05:37:12",1
"20/01/18","05:50",0.0,6.8,57.0,1006.9,254.4,1.7,4.0,242.3,0.00,-1.1,7.4,"05:42:08",1
"20/01/18","06:00",0.0,6.5,57.5,1006.9,289.3,1.3,2.6,314.1,0.00,-1.2,7.5,"05:54:48",1
"20/01/18","06:10",0.0,6.2,58.8,1006.7,291.8,1.3,2.2,277.9,0.00,-1.2,7.5,"06:03:44",1
"20/01/18","06:20",0.0,6.2,60.8,1007.1,277.4,1.3,3.6,319.2,0.00,-0.8,7.2,"06:17:52",1
"20/01/18","06:30",0.0,6.5,60.0,1007.1,264.9,1.3,3.1,226.0,0.00,-0.7,7.6,"06:26:48",1
"20/01/18","06:40",0.0,6.5,60.4,1007.1,286.8,1.6,5.4,284.4,0.00,-0.6,7.3,"06:39:20",1
"20/01/18","06:50",0.0,6.7,60.5,1006.9,307.4,1.2,2.8,331.4,0.00,-0.4,7.1,"06:40:24",1
"20/01/18","07:00",0.0,6.7,61.3,1007.1,287.6,0.8,2.1,274.4,0.00,-0.2,7.4,"06:50:08",1
"20/01/18","07:10",0.0,6.7,62.4,1006.9,316.5,1.3,2.6,318.0,0.00,0.1,7.3,"07:08:00",1
"20/01/18","07:20",0.0,5.9,65.0,1006.9,263.7,1.6,2.2,232.9,0.00,-0.1,7.3,"07:18:00",1
"20/01/18","07:30",0.0,5.5,67.4,1006.9,265.5,1.8,3.7,326.6,0.00,0.0,7.3,"07:24:40",1
"20/01/18","07:40",0.0,5.4,69.1,1007.1,310.0,2.0,3.9,326.5,0.00,0.2,7.2,"07:36:48",1
"20/01/18","07:50",0.0,4.9,70.5,1006.9,308.8,2.0,3.9,337.6,0.00,0.0,7.2,"07:44:32",1
"20/01/18","08:00",0.0,4.7,72.1,1006.9,301.1,1.5,2.7,350.0,0.00,0.1,7.2,"07:57:44",1
"20/01/18","08:10",0.0,4.4,73.1,1006.7,305.5,1.7,3.1,325.4,0.00,0.0,7.0,"08:03:36",1
"20/01/18","08:20",0.0,4.4,74.6,1007.4,309.0,1.7,3.5,321.2,0.00,0.3,6.8,"08:16:56",1
"20/01/18","08:30",0.0,5.5,75.7,1006.9,294.2,1.8,3.2,267.0,0.01,1.6,7.0,"08:22:40",1
"20/01/18","08:40",0.0,6.5,75.3,1007.1,314.4,2.2,4.7,314.8,0.02,2.5,7.1,"08:36:40",1
"20/01/18","08:50",0.0,7.1,73.8,1007.1,316.9,2.2,5.0,332.9,0.03,2.8,6.9,"08:40:40",1
"20/01/18","09:00",0.0,7.7,71.5,1007.6,308.1,2.7,4.9,332.9,0.05,2.9,7.2,"08:58:40",1
"20/01/18","09:10",0.0,8.2,68.6,1007.6,324.8,2.5,4.5,321.1,0.07,2.8,7.2,"09:00:40",1
"20/01/18","09:20",0.0,8.4,66.2,1007.8,335.2,3.0,5.6,340.4,0.08,2.5,7.2,"09:10:24",1
"20/01/18","09:30",0.0,8.4,64.9,1007.6,336.2,3.2,7.1,331.0,0.09,2.2,7.2,"09:29:44",1
"20/01/18","09:40",0.0,8.3,63.9,1008.1,338.4,3.2,5.9,348.8,0.09,1.9,7.1,"09:30:16",1
"20/01/18","09:50",0.0,8.3,63.4,1008.1,340.3,2.6,4.7,342.7,0.06,1.8,7.3,"09:41:44",1
"20/01/18","10:00",0.0,8.2,63.8,1008.1,335.5,2.6,6.0,329.0,0.05,1.8,7.2,"09:59:36",1
"20/01/18","10:10",0.0,9.0,63.4,1008.3,338.7,2.2,4.3,327.6,0.24,2.5,7.7,"10:00:56",1
"20/01/18","10:20",0.0,9.2,62.0,1008.1,347.7,1.5,5.2,339.4,0.11,2.3,7.7,"10:10:08",1
"20/01/18","10:30",0.0,8.9,62.0,1008.3,334.8,2.5,7.2,323.6,0.07,2.1,7.6,"10:23:28",1
"20/01/18","10:40",0.0,9.0,62.9,1008.3,341.0,2.0,3.3,338.2,0.09,2.4,7.8,"10:34:32",1
"20/01/18","10:50",0.0,8.9,63.3,1008.1,354.7,1.7,3.4,341.4,0.10,2.4,7.8,"10:44:52",1
"20/01/18","11:00",0.0,8.9,64.5,1008.3,356.7,1.8,4.3,349.6,0.13,2.6,7.8,"10:59:46",1
"20/01/18","11:10",0.0,9.0,65.9,1008.3,1.2,1.7,3.3,8.7,0.17,3.0,7.9,"11:01:20",1
"20/01/18","11:20",0.0,9.1,66.0,1008.3,353.3,1.6,3.3,335.5,0.17,3.1,8.1,"11:18:38",1
"20/01/18","11:30",0.0,8.8,67.9,1008.3,9.9,2.0,4.8,74.6,0.15,3.2,8.3,"11:24:08",1
"20/01/18","11:40",0.0,8.2,70.2,1008.3,0.6,2.8,6.2,11.4,0.19,3.1,8.2,"11:38:16",1
"20/01/18","11:50",0.0,8.6,72.4,1008.3,350.8,3.2,5.4,358.8,0.34,4.0,8.4,"11:47:04",1
"20/01/18","12:00",0.0,8.5,73.5,1008.1,333.0,3.6,6.8,316.0,0.28,4.1,8.4,"11:55:36",1
"20/01/18","12:10",0.0,8.1,73.9,1008.1,336.5,4.0,6.8,324.6,0.17,3.8,8.2,"12:09:44",1
"20/01/18","12:20",0.0,8.0,75.2,1007.8,330.2,3.4,6.7,323.5,0.17,3.9,8.5,"12:17:48",1
"20/01/18","12:30",0.0,8.7,75.7,1007.6,324.1,2.8,4.7,319.0,0.30,4.7,8.8,"12:22:08",1
"20/01/18","12:40",0.0,8.7,74.7,1007.8,327.7,4.6,9.0,343.8,0.33,4.5,9.0,"12:39:28",1
"20/01/18","12:50",0.0,8.9,74.1,1007.4,328.4,4.6,8.0,353.1,0.38,4.6,8.8,"12:40:08",1
"20/01/18","13:00",0.0,9.1,72.4,1007.6,321.2,4.0,7.0,329.2,0.32,4.4,9.0,"12:59:08",1
"20/01/18","13:10",0.0,8.2,73.6,1007.4,334.6,5.0,9.4,328.2,0.18,3.8,9.2,"13:08:18",1
"20/01/18","13:20",0.0,8.7,74.1,1006.7,326.4,4.1,8.2,328.2,0.39,4.4,9.3,"13:10:16",1
"20/01/18","13:30",0.0,9.1,73.3,1006.9,298.9,3.5,6.3,350.6,0.31,4.6,9.3,"13:28:34",1
"20/01/18","13:40",0.0,9.1,71.7,1006.7,315.8,3.7,9.0,310.3,0.30,4.3,9.4,"13:37:14",1
"20/01/18","13:50",0.0,9.4,69.8,1006.4,314.9,4.1,7.8,337.6,0.34,4.2,9.7,"13:48:48",1
"20/01/18","14:00",0.0,9.4,68.4,1006.4,328.9,3.7,6.8,337.6,0.23,3.9,9.7,"13:57:44",1
"20/01/18","14:10",0.0,9.0,69.5,1006.4,315.8,3.9,7.5,344.9,0.19,3.8,9.9,"14:05:44",1
"20/01/18","14:20",0.0,9.2,70.9,1006.7,310.8,4.0,6.7,315.8,0.32,4.2,9.9,"14:16:00",1
"20/01/18","14:30",0.0,8.9,70.8,1007.1,327.9,3.0,4.9,321.9,0.16,3.9,9.9,"14:20:16",1
"20/01/18","14:40",0.0,8.1,73.2,1006.9,346.1,3.9,6.4,324.4,0.15,3.6,10.0,"14:32:20",1
"20/01/18","14:50",0.0,8.3,74.2,1007.1,334.6,2.8,6.0,334.6,0.16,4.0,10.0,"14:41:32",1
"20/01/18","15:00",0.0,8.2,74.1,1007.1,337.4,2.6,5.6,18.3,0.12,3.9,9.9,"14:57:10",1
"20/01/18","15:10",0.0,8.0,75.2,1006.9,327.0,2.5,3.4,314.7,0.07,3.9,9.9,"15:05:36",1
"20/01/18","15:20",0.0,7.8,76.0,1007.1,324.2,2.6,4.7,326.6,0.09,3.9,10.1,"15:17:58",1
"20/01/18","15:30",0.0,7.4,76.6,1006.9,323.5,3.0,5.6,312.3,0.04,3.6,9.9,"15:28:26",1
"20/01/18","15:40",0.0,7.4,77.5,1006.9,317.6,1.2,2.0,320.1,0.09,3.8,9.9,"15:36:34",1
"20/01/18","15:50",0.2,7.5,78.0,1006.9,332.6,1.2,2.2,328.0,0.09,4.0,9.8,"15:46:20",1
"20/01/18","16:00",0.0,7.8,78.1,1006.9,310.9,0.8,1.6,340.1,0.08,4.3,9.7,"15:51:26",1
"20/01/18","16:10",0.0,8.0,78.1,1006.7,274.9,0.7,1.3,4.5,0.10,4.5,9.6,"16:05:58",1
"20/01/18","16:20",0.0,8.0,77.7,1006.9,268.2,1.2,2.8,241.2,0.06,4.4,9.6,"16:19:08",1
"20/01/18","16:30",0.0,8.1,76.4,1007.6,261.0,1.6,3.3,240.6,0.05,4.2,9.7,"16:21:28",1
"20/01/18","16:40",0.0,8.3,74.6,1007.6,306.5,1.0,1.9,307.3,0.03,4.1,9.5,"16:30:48",1
"20/01/18","16:50",0.0,8.2,73.4,1007.6,327.7,1.2,3.4,324.5,0.02,3.8,9.6,"16:43:44",1
"20/01/18","17:00",0.0,8.1,73.2,1007.8,264.9,0.5,0.9,261.8,0.01,3.6,9.4,"16:55:36",1
"20/01/18","17:10",0.0,7.9,72.3,1007.8,233.0,0.6,1.3,290.3,0.01,3.3,9.4,"17:08:00",1
"20/01/18","17:20",0.0,7.8,71.2,1008.1,283.5,1.0,1.9,256.2,0.00,3.0,9.4,"17:19:20",1
"20/01/18","17:30",0.0,7.6,69.1,1007.8,296.5,2.5,5.0,334.1,0.00,2.3,9.1,"17:28:08",1
"20/01/18","17:40",0.0,7.4,67.4,1008.1,310.6,2.8,5.1,342.3,0.00,1.8,9.4,"17:35:20",1
"20/01/18","17:50",0.0,7.2,67.1,1008.3,297.3,2.1,4.4,240.1,0.00,1.6,9.1,"17:47:44",1
"20/01/18","18:00",0.0,7.2,66.1,1008.1,310.1,3.0,4.7,239.3,0.00,1.3,9.0,"17:50:02",1
"20/01/18","18:10",0.0,7.3,64.9,1008.8,300.6,2.6,4.3,318.4,0.00,1.2,9.2,"18:01:52",1
"20/01/18","18:20",0.0,7.0,65.2,1008.6,317.2,2.6,4.9,334.5,0.00,1.0,8.9,"18:10:56",1
"20/01/18","18:30",0.0,6.9,65.8,1008.3,318.6,2.3,4.3,325.2,0.00,1.0,8.8,"18:25:04",1
"20/01/18","18:40",0.0,6.9,65.7,1008.6,309.5,3.1,7.3,333.6,0.00,1.0,8.8,"18:31:44",1
"20/01/18","18:50",0.0,6.6,66.5,1008.3,317.7,2.7,4.0,319.3,0.00,0.9,8.6,"18:48:32",1
"20/01/18","19:00",0.0,6.5,67.0,1008.8,316.9,2.8,5.5,333.8,0.00,0.9,8.6,"18:54:56",1
"20/01/18","19:10",0.0,6.2,67.4,1008.8,295.4,2.3,3.7,323.3,0.00,0.7,8.5,"19:04:48",1
"20/01/18","19:20",0.0,6.0,67.9,1009.5,306.7,2.2,5.5,325.5,0.00,0.6,8.7,"19:10:48",1
"20/01/18","19:30",0.0,5.6,69.2,1008.8,310.5,2.0,5.2,338.7,0.00,0.4,8.4,"19:25:04",1
"20/01/18","19:40",0.0,5.1,70.7,1009.0,305.2,1.7,3.4,305.1,0.00,0.3,8.2,"19:37:44",1
"20/01/18","19:50",0.0,4.6,72.1,1009.0,292.6,1.3,2.4,321.2,0.00,0.1,8.2,"19:44:24",1
"20/01/18","20:00",0.0,4.6,73.4,1009.0,322.2,1.7,2.4,323.7,0.00,0.3,8.0,"19:54:16",1
"20/01/18","20:10",0.0,4.2,74.7,1009.3,287.1,1.1,2.6,314.3,0.00,0.2,8.1,"20:01:52",1
"20/01/18","20:20",0.0,4.0,75.8,1009.0,310.8,1.6,2.7,322.1,0.00,0.2,8.0,"20:16:32",1
"20/01/18","20:30",0.0,4.0,76.8,1008.8,309.2,1.2,1.9,267.5,0.00,0.3,7.9,"20:22:16",1
"20/01/18","20:40",0.0,3.9,77.7,1009.3,312.5,1.8,3.2,328.2,0.00,0.4,7.8,"20:34:24",1
"20/01/18","20:50",0.0,3.8,78.6,1009.0,312.0,1.3,2.0,321.1,0.00,0.5,7.6,"20:45:36",1
"20/01/18","21:00",0.0,3.5,79.1,1008.8,282.4,1.0,1.4,275.0,0.00,0.3,7.7,"20:54:32",1
"20/01/18","21:10",0.0,3.3,79.9,1008.8,317.9,1.3,2.7,347.1,0.00,0.2,7.7,"21:08:08",1
"20/01/18","21:20",0.0,3.2,80.7,1008.6,329.6,1.1,2.5,330.6,0.00,0.2,7.7,"21:14:24",1
"20/01/18","21:30",0.0,3.8,81.9,1009.3,322.0,2.3,6.6,319.0,0.00,1.0,7.6,"21:29:04",1
"20/01/18","21:40",0.0,5.0,81.2,1009.3,309.2,1.8,3.7,337.3,0.00,2.1,7.5,"21:34:00",1
"20/01/18","21:50",0.0,4.8,80.8,1009.7,290.6,1.6,2.7,299.6,0.00,1.8,7.5,"21:40:24",1
"20/01/18","22:00",0.0,4.5,80.4,1009.7,299.2,1.6,2.6,315.9,0.00,1.5,7.3,"21:53:20",1
"20/01/18","22:10",0.0,4.2,80.3,1010.0,285.3,1.3,2.0,294.6,0.00,1.2,7.4,"22:01:54",1
"20/01/18","22:20",0.0,4.1,80.4,1009.7,327.0,1.5,2.6,344.8,0.00,1.1,7.3,"22:13:36",1
"20/01/18","22:30",0.0,3.5,80.8,1009.5,307.2,1.5,2.5,314.4,0.00,0.6,7.5,"22:26:32",1
"20/01/18","22:40",0.0,3.0,81.8,1009.5,321.9,1.7,2.8,336.0,0.00,0.2,7.4,"22:34:32",1
"20/01/18","22:50",0.0,2.6,82.9,1009.3,296.8,1.7,3.6,318.9,0.00,0.0,7.1,"22:47:12",1
"20/01/18","23:00",0.0,2.4,83.8,1009.3,310.0,1.7,3.5,327.6,0.00,0.0,7.1,"22:59:28",1
"20/01/18","23:10",0.0,2.1,84.9,1009.3,304.0,1.6,2.9,318.5,0.00,-0.1,6.8,"23:09:12",1
"20/01/18","23:20",0.0,1.8,85.9,1009.3,321.9,2.2,3.2,323.7,0.00,-0.3,6.7,"23:11:20",1
"20/01/18","23:30",0.0,1.7,86.6,1009.3,313.3,2.0,2.8,325.7,0.00,-0.3,7.1,"23:24:00",1
"20/01/18","23:40",0.0,1.7,87.3,1009.5,315.6,2.0,2.6,319.3,0.00,-0.1,6.9,"23:35:36",1
"20/01/18","23:50",0.0,1.5,88.0,1009.0,319.0,1.7,2.6,315.7,0.00,-0.2,6.8,"23:46:24",1
"20/01/18","24:00",0.0,1.3,88.6,1009.3,313.9,1.6,2.5,341.5,0.00,-0.3,6.9,"23:51:28",1
